FW0202 Weather Reports


Display with metric or nautical units.
time (UTC)temp
F
wind
direction
speed
MPH
gust
MPH
rain 1hr
in
rain 24hr
in
rain mn
in
humidity
%
barometer
mb
20260506160954 61 181 5.0 6.0 0.00 0.38 0.00 99 996.0
20260506160449 61 180 5.0 6.0 0.00 0.38 0.00 99 996.2
20260506155924 61 180 5.0 5.0 0.00 0.38 0.00 99 996.3
20260506155629 61 170 4.0 5.0 0.00 0.38 0.00 99 996.2
20260506154907 61 173 5.0 5.0 0.00 0.38 0.00 99 996.4
20260506154619 61 175 4.0 6.0 0.00 0.38 0.00 99 996.5
20260506153859 61 175 5.0 6.0 0.00 0.38 0.00 99 996.4
20260506153354 61 172 5.0 6.0 0.00 0.38 0.00 99 996.4
20260506152850 61 174 5.0 6.0 0.00 0.38 0.00 99 996.4
20260506152348 61 170 5.0 6.0 0.00 0.38 0.00 99 996.5
20260506151849 61 180 5.0 6.0 0.00 0.38 0.00 99 996.6
20260506151338 61 179 5.0 6.0 0.00 0.38 0.00 99 996.6
20260506150812 61 178 4.0 6.0 0.00 0.38 0.00 99 996.7
20260506150531 61 175 5.0 6.0 0.00 0.38 0.00 99 996.5
20260506145755 61 177 5.0 6.0 0.00 0.38 0.00 99 996.6
20260506145247 61 173 5.0 6.0 0.00 0.38 0.00 99 996.6
20260506144716 61 180 5.0 6.0 0.00 0.38 0.00 99 996.6
20260506144211 61 179 4.0 6.0 0.00 0.38 0.00 99 996.7
20260506143707 61 190 5.0 6.0 0.00 0.38 0.00 99 996.5
20260506143204 61 173 5.0 6.0 0.00 0.38 0.00 99 996.7
20260506142659 61 174 4.0 6.0 0.00 0.38 0.00 99 996.8
20260506142155 61 175 5.0 6.0 0.00 0.38 0.00 99 996.9
20260506141649 61 172 5.0 6.0 0.00 0.38 0.00 99 996.9
20260506141148 61 172 5.0 6.0 0.00 0.38 0.00 99 996.9
20260506140649 61 173 5.0 6.0 0.00 0.38 0.00 99 996.8
20260506140149 61 177 5.0 6.0 0.00 0.38 0.00 99 997.0
20260506135838 61 182 5.0 6.0 0.00 0.38 0.38 99 997.0
20260506135110 61 185 4.0 6.0 0.00 0.38 0.38 99 997.1
20260506134555 62 180 5.0 6.0 0.00 0.38 0.38 99 996.9
20260506134052 62 191 5.0 6.0 0.00 0.38 0.38 99 997.2
20260506133547 62 176 5.0 5.0 0.00 0.38 0.38 99 997.1
20260506133302 62 177 5.0 5.0 0.00 0.38 0.38 99 997.1
20260506132518 61 174 5.0 6.0 0.00 0.38 0.38 99 997.4
20260506132013 62 179 5.0 6.0 0.00 0.38 0.38 99 997.4
20260506131510 62 171 5.0 6.0 0.00 0.38 0.38 99 997.3
20260506131005 62 179 4.0 5.0 0.00 0.38 0.38 99 997.4
20260506130451 62 175 5.0 6.0 0.00 0.38 0.38 99 997.5
20260506125947 62 172 5.0 6.0 0.00 0.38 0.38 99 997.4
20260506125705 62 166 5.0 6.0 0.00 0.38 0.38 99 997.6
20260506124929 62 166 5.0 6.0 0.00 0.38 0.38 98 997.6
20260506124415 62 186 5.0 6.0 0.00 0.38 0.38 98 997.5
20260506123913 62 174 5.0 6.0 0.00 0.38 0.38 98 997.4
20260506123414 62 174 5.0 6.0 0.00 0.38 0.38 98 997.2
20260506122911 62 183 5.0 6.0 0.00 0.38 0.38 98 997.5
20260506122617 62 176 5.0 6.0 0.00 0.38 0.38 98 997.4
20260506121842 62 180 5.0 6.0 0.00 0.38 0.38 98 997.4
20260506121342 62 179 4.0 6.0 0.00 0.38 0.38 98 997.3
20260506121035 62 172 4.0 6.0 0.00 0.38 0.38 98 997.3
20260506120310 62 178 5.0 6.0 0.00 0.38 0.38 98 997.7
20260506115806 62 176 5.0 6.0 0.00 0.38 0.38 98 997.7
20260506115252 62 175 4.0 6.0 0.00 0.38 0.38 98 997.6
20260506115011 62 178 5.0 6.0 0.00 0.38 0.38 98 997.9
20260506114258 62 181 4.0 5.0 0.00 0.38 0.38 98 997.7
20260506113955 62 177 5.0 6.0 0.00 0.38 0.38 98 998.0
20260506112732 62 177 5.0 6.0 0.00 0.38 0.38 98 998.2
20260506112226 62 182 5.0 6.0 0.00 0.38 0.38 98 998.1
20260506111722 62 177 4.0 6.0 0.00 0.38 0.38 98 998.1
20260506111219 62 183 5.0 6.0 0.00 0.38 0.38 98 998.1
20260506110715 62 170 5.0 6.0 0.00 0.38 0.38 98 998.2
20260506110434 62 178 5.0 6.0 0.00 0.38 0.38 98 998.2
20260506105707 62 175 5.0 6.0 0.00 0.38 0.38 98 998.0
20260506105203 62 192 6.0 6.0 0.00 0.38 0.38 98 998.1
20260506104649 62 188 5.0 6.0 0.00 0.38 0.38 98 998.1
20260506104144 63 178 4.0 6.0 0.00 0.38 0.38 98 998.1
20260506103639 63 178 5.0 5.0 0.00 0.38 0.38 98 998.0
20260506103140 63 179 4.0 5.0 0.00 0.38 0.38 98 998.3
20260506102640 63 177 5.0 6.0 0.00 0.38 0.38 98 998.4
20260506102140 63 177 5.0 6.0 0.00 0.38 0.38 98 998.2
20260506101624 63 173 5.0 6.0 0.00 0.38 0.38 98 998.6
20260506101119 63 175 5.0 6.0 0.00 0.38 0.38 98 998.6
20260506100615 63 174 5.0 6.0 0.00 0.38 0.38 98 998.3
20260506100123 63 177 5.0 6.0 0.00 0.38 0.38 98 998.3
20260506095610 63 177 5.0 6.0 0.00 0.38 0.38 98 998.2
20260506095104 63 173 5.0 6.0 0.00 0.38 0.38 98 998.3
20260506094559 63 172 5.0 6.0 0.00 0.38 0.38 98 998.2
20260506094055 63 179 5.0 6.0 0.00 0.38 0.38 98 998.3
20260506093550 63 172 4.0 6.0 0.00 0.38 0.38 98 998.3
20260506093046 63 173 6.0 6.0 0.00 0.38 0.38 98 998.1
20260506092542 63 174 4.0 6.0 0.00 0.38 0.38 98 998.0
20260506092038 63 176 4.0 6.0 0.00 0.38 0.38 98 998.1
20260506091514 63 173 5.0 6.0 0.00 0.38 0.38 98 997.8
20260506091010 63 177 5.0 6.0 0.00 0.38 0.38 98 997.9
20260506090508 63 180 5.0 6.0 0.00 0.38 0.38 98 997.5
20260506090231 63 178 5.0 6.0 0.00 0.38 0.38 98 997.7
20260506085520 63 174 5.0 6.0 0.00 0.38 0.38 98 997.7
20260506084944 63 174 5.0 6.0 0.00 0.38 0.38 98 997.7
20260506084437 63 175 5.0 6.0 0.00 0.38 0.38 98 997.5
20260506083935 63 175 5.0 6.0 0.00 0.38 0.38 98 997.6
20260506083431 63 184 5.0 5.0 0.00 0.38 0.38 98 997.7
20260506082927 63 176 5.0 6.0 0.00 0.38 0.38 98 997.7
20260506082406 63 179 5.0 6.0 0.00 0.38 0.38 98 997.4
20260506081906 63 174 4.0 6.0 0.00 0.38 0.38 98 997.5
20260506081354 63 179 5.0 6.0 0.00 0.38 0.38 98 997.4
20260506080836 63 170 5.0 6.0 0.00 0.38 0.38 98 997.5
20260506080337 63 179 5.0 6.0 0.00 0.38 0.38 98 997.4
20260506073230 63 178 5.0 6.0 0.00 0.38 0.38 98 997.2
20260506072727 63 175 4.0 6.0 0.00 0.38 0.38 98 997.2
20260506072212 63 176 5.0 6.0 0.00 0.38 0.38 98 997.3
20260506071658 63 178 5.0 6.0 0.00 0.38 0.38 98 997.4
20260506071153 63 180 5.0 6.0 0.00 0.38 0.38 98 997.3
20260506070652 63 175 5.0 6.0 0.00 0.38 0.38 98 997.3
20260506070125 63 173 4.0 6.0 0.00 0.38 0.38 98 997.2
20260506062305 64 177 5.0 6.0 0.00 0.38 0.38 98 997.2
20260506061527 64 178 5.0 6.0 0.00 0.38 0.38 98 997.4
20260506061013 64 176 5.0 6.0 0.00 0.38 0.38 98 997.4
20260506060509 64 173 5.0 6.0 0.00 0.38 0.38 98 997.5
20260506051350 64 182 5.0 6.0 0.00 0.38 0.38 98 997.1
20260506050831 64 181 4.0 6.0 0.00 0.38 0.38 98 997.2
20260506050329 64 183 5.0 6.0 0.00 0.38 0.38 98 997.2
20260506044745 64 181 4.0 6.0 0.00 0.38 0.38 98 997.2
20260506044503 64 168 5.0 6.0 0.00 0.38 0.38 98 997.3
20260506043729 65 181 4.0 6.0 0.00 0.38 0.38 98 997.3
20260506043213 64 184 5.0 6.0 0.00 0.38 0.38 98 997.3
20260506042709 64 174 5.0 6.0 0.00 0.38 0.38 98 997.5
20260506042206 64 172 5.0 6.0 0.00 0.38 0.38 98 997.3
20260506041651 64 169 5.0 6.0 0.00 0.38 0.38 98 997.4
20260506041147 64 174 5.0 6.0 0.00 0.38 0.38 98 997.5
20260506040642 64 175 6.0 6.0 0.00 0.38 0.38 98 997.4
20260506040138 64 177 5.0 6.0 0.00 0.38 0.38 98 997.4
20260506035614 64 180 4.0 6.0 0.00 0.38 0.38 98 997.6
20260506035110 64 174 5.0 6.0 0.00 0.38 0.38 98 997.3
20260506034606 63 179 5.0 6.0 0.00 0.38 0.38 98 997.6
20260506034102 64 174 5.0 6.0 0.00 0.38 0.38 98 997.5
20260506033557 64 170 5.0 6.0 0.00 0.38 0.38 98 997.6
20260506033315 63 177 4.0 6.0 0.00 0.38 0.38 98 997.6
20260506032549 64 177 5.0 6.0 0.00 0.38 0.38 98 997.7
20260506032046 64 167 5.0 6.0 0.00 0.38 0.38 98 997.9
20260506031528 64 174 5.0 6.0 0.00 0.37 0.37 98 997.7
20260506031238 64 187 5.0 6.0 0.00 0.37 0.37 98 997.8
20260506030731 64 169 5.0 6.0 0.00 0.37 0.37 98 998.0
20260506025959 64 181 5.0 6.0 0.00 0.37 0.37 98 997.8
20260506025454 64 176 5.0 6.0 0.00 0.37 0.37 98 997.8
20260506024940 64 176 5.0 6.0 0.00 0.37 0.37 98 997.9
20260506024435 64 185 5.0 6.0 0.00 0.37 0.37 98 997.8
20260506024411 64 189 4.0 6.0 0.00 0.37 0.37 98 998.0
20260506023428 64 178 5.0 6.0 0.00 0.37 0.37 98 997.9
20260506022913 64 180 4.0 6.0 0.00 0.37 0.37 98 998.1
20260506022408 64 178 5.0 6.0 0.00 0.37 0.37 98 998.1
20260506022105 64 183 5.0 6.0 0.00 0.37 0.37 98 998.2
20260506021340 64 175 5.0 6.0 0.00 0.37 0.37 98 998.2
20260506020837 64 169 5.0 6.0 0.00 0.37 0.37 98 998.1
20260506020323 64 172 5.0 6.0 0.00 0.37 0.37 98 998.3
20260506015819 64 183 5.0 6.0 0.00 0.37 0.37 98 998.4
20260506015315 64 177 5.0 6.0 0.00 0.37 0.37 98 998.4
20260506014812 64 175 5.0 6.0 0.00 0.37 0.37 98 998.4
20260506014256 64 186 5.0 6.0 0.00 0.37 0.37 98 998.4
20260506013753 64 168 5.0 6.0 0.00 0.37 0.37 98 998.6
20260506013228 64 178 4.0 6.0 0.00 0.37 0.37 98 998.5
20260506012726 64 169 5.0 6.0 0.00 0.37 0.37 98 998.8
20260506012450 64 171 5.0 6.0 0.00 0.37 0.37 98 998.5
20260506011725 64 178 5.0 6.0 0.00 0.37 0.37 98 998.9
20260506011221 64 183 4.0 6.0 0.00 0.37 0.37 98 998.7
20260506010939 64 180 5.0 6.0 0.00 0.37 0.37 98 998.8
20260506010213 64 172 5.0 6.0 0.00 0.37 0.37 98 998.7
20260506005710 64 181 5.0 6.0 0.00 0.37 0.37 98 998.9
20260506005205 63 182 5.0 6.0 0.00 0.37 0.37 98 998.9
20260506004700 63 174 5.0 6.0 0.00 0.37 0.37 98 999.0
20260506004647 63 174 5.0 6.0 0.00 0.37 0.37 98 999.1
20260506004140 63 169 5.0 6.0 0.00 0.37 0.37 98 999.1
20260506003153 63 167 5.0 6.0 0.01 0.37 0.37 98 999.1
20260506002644 63 179 5.0 6.0 0.01 0.37 0.37 98 999.2
20260506002123 63 168 5.0 6.0 0.02 0.37 0.37 98 999.1
20260506001623 63 167 6.0 6.0 0.02 0.37 0.37 98 999.2
20260506001112 63 180 4.0 6.0 0.02 0.37 0.37 98 999.3
20260506000608 63 177 5.0 6.0 0.02 0.37 0.37 98 999.1
20260506000330 63 160 6.0 6.0 0.03 0.37 0.37 98 999.2
20260505235553 63 166 6.0 6.0 0.04 0.37 0.37 98 999.2
20260505235053 63 163 5.0 7.0 0.06 0.37 0.37 98 999.4
20260505234531 63 163 6.0 7.0 0.07 0.37 0.37 98 999.4
20260505234022 63 164 5.0 8.0 0.08 0.37 0.37 98 999.3
20260505233525 63 180 4.0 8.0 0.09 0.37 0.37 98 999.2
20260505233009 63 171 5.0 8.0 0.10 0.37 0.37 98 999.2
20260505232454 63 169 5.0 7.0 0.10 0.36 0.36 98 999.1
20260505231952 63 166 6.0 7.0 0.09 0.36 0.36 98 999.1
20260505231452 63 165 5.0 7.0 0.09 0.35 0.35 98 999.0
20260505230951 63 162 5.0 7.0 0.09 0.35 0.35 98 999.1
20260505230447 63 165 6.0 6.0 0.09 0.35 0.35 98 999.3
20260505225923 63 177 5.0 6.0 0.08 0.34 0.34 98 999.1
20260505225421 63 158 6.0 7.0 0.07 0.33 0.33 98 999.0
20260505224920 63 161 6.0 8.0 0.06 0.31 0.31 98 999.2
20260505224420 63 155 5.0 8.0 0.05 0.30 0.30 98 999.2
20260505223917 63 162 6.0 6.0 0.03 0.29 0.29 98 999.0
20260505223413 63 167 6.0 6.0 0.02 0.27 0.27 98 999.1
20260505223133 63 176 5.0 6.0 0.01 0.27 0.27 98 999.2
20260505222623 63 168 4.0 6.0 0.01 0.26 0.26 98 999.1
20260505221900 63 168 5.0 6.0 0.01 0.26 0.26 98 998.9
20260505221356 63 172 5.0 6.0 0.01 0.26 0.26 98 999.0
20260505221102 63 166 6.0 7.0 0.01 0.26 0.26 98 999.1
20260505220803 63 178 5.0 7.0 0.01 0.26 0.26 98 999.0
20260505215813 63 143 7.0 7.0 0.01 0.26 0.26 98 998.9
20260505215309 63 159 6.0 6.0 0.01 0.26 0.26 98 998.9
20260505214755 63 162 5.0 6.0 0.01 0.26 0.26 98 998.9
20260505214251 63 162 5.0 6.0 0.01 0.26 0.26 98 998.7
20260505213748 63 168 5.0 6.0 0.02 0.26 0.26 98 998.9
20260505213244 64 154 6.0 6.0 0.02 0.26 0.26 98 998.7
20260505212739 64 167 6.0 6.0 0.03 0.26 0.26 98 998.6
20260505212436 64 159 6.0 7.0 0.05 0.26 0.26 98 998.6
20260505211711 64 169 5.0 7.0 0.06 0.26 0.26 98 998.4
20260505211206 64 169 5.0 7.0 0.06 0.26 0.26 98 998.4
20260505210715 64 166 5.0 6.0 0.06 0.26 0.26 98 998.4
20260505210159 64 160 6.0 6.0 0.05 0.25 0.25 98 998.3
20260505205644 64 164 5.0 6.0 0.05 0.25 0.25 98 998.3
20260505205120 64 162 5.0 7.0 0.05 0.25 0.25 98 998.1
20260505204839 64 160 5.0 7.0 0.05 0.25 0.25 98 998.1
20260505204112 64 171 5.0 6.0 0.05 0.24 0.24 98 998.1
20260505203830 64 158 5.0 6.0 0.04 0.24 0.24 98 998.1
20260505203052 64 155 5.0 6.0 0.04 0.23 0.23 98 998.2
20260505202547 64 156 5.0 6.0 0.02 0.22 0.22 98 998.0
20260505202045 64 168 5.0 6.0 0.02 0.20 0.20 98 997.9
20260505201530 64 170 5.0 6.0 0.02 0.20 0.20 98 997.9
20260505201016 64 168 5.0 6.0 0.03 0.20 0.20 98 998.0
20260505200516 65 166 5.0 6.0 0.04 0.20 0.20 98 997.9
20260505200242 65 160 5.0 6.0 0.06 0.20 0.20 98 997.8
20260505195513 65 163 5.0 6.0 0.06 0.20 0.20 98 997.8
20260505194946 65 170 5.0 6.0 0.09 0.20 0.20 98 997.8
20260505194445 65 153 5.0 6.0 0.11 0.20 0.20 98 997.7
20260505193942 65 166 5.0 6.0 0.14 0.20 0.20 98 997.7
20260505193427 65 161 5.0 6.0 0.14 0.20 0.20 98 997.6
20260505192915 65 175 4.0 6.0 0.15 0.19 0.19 98 997.5
20260505192416 65 171 5.0 6.0 0.16 0.20 0.19 98 997.6
20260505191915 65 167 5.0 6.0 0.17 0.19 0.19 98 997.6
20260505191858 65 169 4.0 6.0 0.17 0.18 0.18 98 997.5
20260505190907 65 171 5.0 6.0 0.16 0.17 0.17 97 997.5
20260505190403 65 176 5.0 6.0 0.15 0.16 0.15 98 997.6
20260505185859 65 168 4.0 6.0 0.13 0.14 0.14 97 997.4
20260505185355 65 175 4.0 6.0 0.13 0.14 0.13 97 997.4
20260505184851 65 168 5.0 6.0 0.10 0.11 0.11 97 997.3
20260505184345 65 166 5.0 6.0 0.07 0.08 0.08 97 997.2
20260505183842 65 174 5.0 6.0 0.05 0.06 0.06 97 997.3
20260505183327 65 164 5.0 6.0 0.05 0.06 0.05 97 997.2
20260505182824 65 168 5.0 6.0 0.04 0.04 0.04 97 997.3
20260505182320 65 174 4.0 6.0 0.02 0.03 0.03 97 997.2
20260505181813 65 176 5.0 6.0 0.01 0.02 0.01 97 997.1
20260505181313 65 177 5.0 6.0 0.00 0.01 0.01 97 997.3
20260505180813 65 164 5.0 6.0 0.00 0.01 0.00 97 997.1
20260505180313 65 171 5.0 6.0 0.00 0.01 0.00 97 997.2
20260505175808 65 167 5.0 6.0 0.00 0.01 0.00 97 997.2
20260505175534 65 160 5.0 6.0 0.00 0.01 0.00 97 997.1
20260505174751 65 171 5.0 6.0 0.00 0.01 0.00 97 997.3
20260505174246 65 164 5.0 6.0 0.00 0.01 0.00 97 997.2
20260505173743 65 167 5.0 6.0 0.00 0.01 0.00 97 997.2
20260505173238 65 167 5.0 6.0 0.00 0.01 0.00 97 997.4
20260505172713 65 167 5.0 6.0 0.00 0.01 0.00 97 997.2
20260505172209 65 169 5.0 6.0 0.00 0.01 0.00 97 997.1
20260505171705 65 180 4.0 6.0 0.00 0.01 0.00 97 997.2
20260505171201 65 176 5.0 6.0 0.00 0.01 0.00 97 997.4
20260505170658 65 173 5.0 6.0 0.00 0.01 0.00 97 997.3
20260505170153 65 171 4.0 6.0 0.00 0.01 0.00 97 997.2
20260505165649 66 167 5.0 6.0 0.00 0.01 0.00 97 997.2
20260505165114 66 169 5.0 6.0 0.00 0.01 0.00 97 997.3
20260505164610 66 172 5.0 6.0 0.00 0.01 0.00 97 997.3
20260505164056 66 156 6.0 6.0 0.00 0.01 0.00 97 997.3
20260505163813 66 166 5.0 6.0 0.00 0.01 0.00 97 997.5
20260505163047 66 174 4.0 6.0 0.00 0.01 0.00 97 997.6
20260505162556 66 171 4.0 6.0 0.00 0.01 0.00 96 997.5
20260505162030 66 171 4.0 6.0 0.00 0.01 0.00 96 997.7
20260505161515 66 175 5.0 6.0 0.00 0.01 0.00 96 997.6
20260505161231 66 176 4.0 6.0 0.00 0.01 0.00 96 997.6